When you browse on this site, cookies collect data to enhance your experience and personalize the content and advertising you see.
Visit our Privacy Policy to learn more. By continuing to use the site, you agree to this use of cookies and data.

Hourly Weather Prusinowo

Today, 4 July, Saturday

Time Temperature Precipitation Wind Pressure Humidity
00:00 +14°C° 0 mm 1 mps 749 mmHg 95%
01:00 +13°C° 0 mm 1 mps 749 mmHg 95%
02:00 +13°C° 0 mm 1 mps 749 mmHg 94%
03:00 +13°C° 0 mm 1 mps 749 mmHg 93%
04:00 +13°C° 0 mm 1 mps 749 mmHg 92%
05:00 +15°C° 0 mm 1 mps 749 mmHg 88%
06:00 +16°C° 0 mm 2 mps 749 mmHg 83%
07:00 +18°C° 0 mm 2 mps 750 mmHg 79%
08:00 +20°C° 0 mm 3 mps 750 mmHg 72%
09:00 +21°C° 0 mm 3 mps 750 mmHg 65%
10:00 +24°C° 0 mm 3 mps 750 mmHg 57%
11:00 +23°C° 0 mm 4 mps 749 mmHg 56%
12:00 +25°C° 0 mm 4 mps 749 mmHg 55%
13:00 +25°C° 0 mm 4 mps 749 mmHg 54%
14:00 +25°C° 0 mm 4 mps 749 mmHg 56%
15:00 +25°C° 0 mm 4 mps 748 mmHg 57%
16:00 +25°C° 0 mm 4 mps 748 mmHg 58%
17:00 +23°C° 0 mm 4 mps 748 mmHg 64%
18:00 +22°C° 0 mm 3 mps 748 mmHg 70%
19:00 +21°C° 0 mm 2 mps 748 mmHg 76%
20:00 +20°C° 0 mm 3 mps 748 mmHg 79%
21:00 +19°C° 0 mm 3 mps 747 mmHg 82%
22:00 +18°C° 0 mm 3 mps 747 mmHg 86%
23:00 +18°C° 0 mm 3 mps 747 mmHg 84%

Tomorrow, 5 July, Sunday

Time Temperature Precipitation Wind Pressure Humidity
00:00 +18°C° 0 mm 3 mps 747 mmHg 83%
01:00 +18°C° 0 mm 3 mps 747 mmHg 81%
02:00 +18°C° 0 mm 3 mps 747 mmHg 82%
03:00 +18°C° 0 mm 3 mps 747 mmHg 84%
04:00 +17°C° 0 mm 3 mps 746 mmHg 85%
05:00 +18°C° 0 mm 4 mps 746 mmHg 81%
06:00 +19°C° 0 mm 4 mps 746 mmHg 77%
07:00 +20°C° 0 mm 5 mps 747 mmHg 74%
08:00 +21°C° 0 mm 5 mps 747 mmHg 70%
09:00 +23°C° 0 mm 5 mps 747 mmHg 67%
10:00 +25°C° 0 mm 5 mps 747 mmHg 64%
11:00 +24°C° 0.2 mm 6 mps 746 mmHg 64%
12:00 +26°C° 0.2 mm 6 mps 746 mmHg 64%
13:00 +26°C° 0.2 mm 6 mps 745 mmHg 64%
14:00 +26°C° 0.1 mm 6 mps 745 mmHg 65%
15:00 +26°C° 0.1 mm 6 mps 745 mmHg 66%
16:00 +26°C° 0.1 mm 5 mps 745 mmHg 66%
17:00 +25°C° 0.1 mm 5 mps 744 mmHg 72%
18:00 +23°C° 0.1 mm 4 mps 744 mmHg 79%
19:00 +22°C° 0.1 mm 3 mps 744 mmHg 85%
20:00 +21°C° 0 mm 3 mps 744 mmHg 87%
21:00 +20°C° 0 mm 3 mps 744 mmHg 90%
22:00 +20°C° 0 mm 4 mps 744 mmHg 92%
23:00 +19°C° 0 mm 3 mps 744 mmHg 92%

Day after tomorrow, 6 July, Monday

Time Temperature Precipitation Wind Pressure Humidity
00:00 +19°C° 0 mm 3 mps 743 mmHg 92%
01:00 +19°C° 0 mm 3 mps 743 mmHg 92%
02:00 +19°C° 0.1 mm 3 mps 743 mmHg 92%
03:00 +19°C° 0.1 mm 3 mps 743 mmHg 93%
04:00 +19°C° 0.1 mm 3 mps 743 mmHg 93%
05:00 +19°C° 0 mm 3 mps 743 mmHg 91%
06:00 +19°C° 0 mm 3 mps 743 mmHg 89%
07:00 +19°C° 0 mm 3 mps 743 mmHg 87%
08:00 +19°C° 0 mm 3 mps 743 mmHg 85%
09:00 +19°C° 0 mm 4 mps 743 mmHg 83%
10:00 +19°C° 0 mm 4 mps 743 mmHg 81%
11:00 +21°C° 0.1 mm 5 mps 743 mmHg 71%
12:00 +23°C° 0.1 mm 5 mps 743 mmHg 61%
13:00 +26°C° 0.1 mm 6 mps 743 mmHg 51%
14:00 +24°C° 0 mm 6 mps 743 mmHg 54%
15:00 +23°C° 0 mm 6 mps 743 mmHg 56%
16:00 +22°C° 0 mm 5 mps 743 mmHg 58%
17:00 +21°C° 0.1 mm 4 mps 743 mmHg 64%
18:00 +20°C° 0.1 mm 3 mps 743 mmHg 69%
19:00 +18°C° 0.1 mm 3 mps 743 mmHg 75%
20:00 +17°C° 0 mm 3 mps 744 mmHg 76%
21:00 +14°C° 0 mm 3 mps 744 mmHg 77%
22:00 +13°C° 0 mm 3 mps 744 mmHg 78%
23:00 +12°C° 0 mm 3 mps 744 mmHg 79%

7 July, Tuesday

Time Temperature Precipitation Wind Pressure Humidity
00:00 +12°C° 0 mm 3 mps 745 mmHg 80%
01:00 +12°C° 0 mm 3 mps 745 mmHg 82%
02:00 +11°C° 0 mm 3 mps 745 mmHg 83%
03:00 +11°C° 0 mm 3 mps 745 mmHg 84%
04:00 +11°C° 0 mm 3 mps 745 mmHg 85%
05:00 +12°C° 0 mm 3 mps 746 mmHg 82%
06:00 +13°C° 0 mm 3 mps 746 mmHg 78%
07:00 +14°C° 0 mm 4 mps 746 mmHg 74%
08:00 +15°C° 0.1 mm 4 mps 746 mmHg 70%
09:00 +17°C° 0.1 mm 4 mps 746 mmHg 66%
10:00 +18°C° 0.1 mm 4 mps 747 mmHg 62%
11:00 +17°C° 0.1 mm 5 mps 747 mmHg 60%
12:00 +17°C° 0.1 mm 5 mps 747 mmHg 58%
13:00 +17°C° 0.1 mm 5 mps 747 mmHg 57%
14:00 +17°C° 0.1 mm 5 mps 747 mmHg 58%
15:00 +17°C° 0.1 mm 5 mps 747 mmHg 60%
16:00 +16°C° 0.1 mm 5 mps 747 mmHg 62%
17:00 +17°C° 0 mm 4 mps 748 mmHg 66%
18:00 +16°C° 0 mm 3 mps 748 mmHg 70%
19:00 +15°C° 0 mm 2 mps 748 mmHg 74%
20:00 +14°C° 0 mm 2 mps 748 mmHg 78%
21:00 +13°C° 0 mm 2 mps 748 mmHg 82%
22:00 +10°C° 0 mm 2 mps 748 mmHg 86%
23:00 +10°C° 0 mm 3 mps 748 mmHg 86%

8 July, Wednesday

Time Temperature Precipitation Wind Pressure Humidity
00:00 +10°C° 0 mm 3 mps 748 mmHg 87%
01:00 +10°C° 0 mm 3 mps 748 mmHg 87%
02:00 +10°C° 0 mm 3 mps 748 mmHg 87%
03:00 +10°C° 0 mm 3 mps 748 mmHg 87%
04:00 +10°C° 0 mm 4 mps 748 mmHg 86%
05:00 +11°C° 0 mm 4 mps 748 mmHg 81%
06:00 +13°C° 0 mm 5 mps 748 mmHg 75%
07:00 +14°C° 0 mm 6 mps 748 mmHg 70%
08:00 +15°C° 0.1 mm 6 mps 748 mmHg 65%
09:00 +16°C° 0.1 mm 6 mps 748 mmHg 61%
10:00 +17°C° 0.1 mm 7 mps 748 mmHg 57%
11:00 +17°C° 0.3 mm 7 mps 748 mmHg 60%
12:00 +17°C° 0.3 mm 7 mps 748 mmHg 62%
13:00 +17°C° 0.3 mm 7 mps 748 mmHg 65%
14:00 +17°C° 0.2 mm 6 mps 748 mmHg 66%
15:00 +17°C° 0.2 mm 6 mps 748 mmHg 66%
16:00 +17°C° 0.2 mm 5 mps 748 mmHg 67%
17:00 +17°C° 0.2 mm 4 mps 748 mmHg 72%
18:00 +16°C° 0.2 mm 3 mps 748 mmHg 78%
19:00 +16°C° 0.2 mm 2 mps 748 mmHg 83%
20:00 +14°C° 0 mm 2 mps 748 mmHg 84%
21:00 +13°C° 0 mm 2 mps 748 mmHg 86%
22:00 +12°C° 0 mm 1 mps 748 mmHg 87%
23:00 +12°C° 0 mm 2 mps 748 mmHg 86%

9 July, Thursday

Time Temperature Precipitation Wind Pressure Humidity
00:00 +13°C° 0 mm 2 mps 748 mmHg 84%
01:00 +12°C° 0 mm 3 mps 747 mmHg 83%
02:00 +13°C° 0 mm 3 mps 747 mmHg 82%
03:00 +13°C° 0 mm 3 mps 747 mmHg 81%
04:00 +13°C° 0 mm 4 mps 746 mmHg 81%
05:00 +13°C° 0.4 mm 4 mps 746 mmHg 85%
06:00 +13°C° 0.4 mm 4 mps 746 mmHg 88%
07:00 +13°C° 0.4 mm 4 mps 746 mmHg 92%
08:00 +13°C° 0.3 mm 4 mps 746 mmHg 93%
09:00 +13°C° 0.3 mm 4 mps 746 mmHg 94%
10:00 +14°C° 0.3 mm 4 mps 746 mmHg 95%
11:00 +15°C° 0.1 mm 5 mps 746 mmHg 89%
12:00 +16°C° 0.1 mm 5 mps 747 mmHg 84%
13:00 +17°C° 0.1 mm 6 mps 747 mmHg 78%
14:00 +19°C° 0 mm 5 mps 747 mmHg 72%
15:00 +19°C° 0 mm 5 mps 747 mmHg 66%
16:00 +20°C° 0 mm 5 mps 747 mmHg 60%
17:00 +19°C° 0 mm 4 mps 747 mmHg 65%
18:00 +18°C° 0 mm 3 mps 747 mmHg 69%
19:00 +17°C° 0 mm 2 mps 747 mmHg 73%
20:00 +16°C° 0 mm 2 mps 747 mmHg 76%
21:00 +15°C° 0 mm 2 mps 747 mmHg 79%
22:00 +14°C° 0 mm 2 mps 747 mmHg 82%
23:00 +14°C° 0 mm 2 mps 747 mmHg 82%
Show more